Location: Newark
(41.8083°N, 72.2500°W)
Time: 00:16:32
(UTC+00:00)

Transit 2A - Pass Details

Date: 03 December 2021
Orbit: 591 x 967 km, 66.7° (Epoch: 23 January)

Event Time Altitude Azimuth Distance (km) Brightness Sun altitude
Rises 11:13:23 0° 337° (NNW) 3,641 9.1 -8.5°
Reaches altitude 10° 11:18:19 10° 10° (N) 2,713 8.7 -7.7°
Maximum altitude 11:20:13 11° 28° (NNE) 2,617 8.8 -7.3°
Drops below altitude 10° 11:22:06 10° 45° (NE) 2,705 9.1 -7.0°
Sets 11:26:58 0° 78° (ENE) 3,611 10.5 -6.2°
